Retour au catalogue

TITAN 3C TRANSTAGE DEB

LostHEO
NORAD 34167·DEBRIS·🇺🇸 United States

Lancé Dec 21, 1965 depuis Cape Canaveral Space Force Station

Loading…

Prochains Passages (prochaines 24 heures)

TLE

PériméSource: Space-Track

Époque: Oct 11, 2023, 06:42 UTC

1 34167U 65108DA  23284.27974355  .00001941  00000-0  10162-1 0  9998
2 34167  26.1573 167.1095 6398401 171.1820 210.4690  3.25999568 31065

Suivez TITAN 3C TRANSTAGE DEB en temps réel avec AllMySat

Download on the App Store